Location: Kopernik Observatory
(42.0014°N, 76.0372°W)
Time: 15:09:42
(UTC-04:00)

Daily predictions for brighter satellites

Satellite Brightness Start Highest point End
(mag) Time Altitude Azimuth Time Altitude Azimuth Time Altitude Azimuth
Cosmos 1975 Rocket 3.6 20:49:31 10° SSW 20:53:58 67° W 20:58:26 10° N
Cosmos 773 Rocket 4.2 20:53:38 10° S 20:58:35 49° ESE 21:03:31 10° NNE
CZ-4B DEB 3.0 20:56:17 10° SSE 20:59:09 45° ENE 21:02:02 10° N
Cosmos 2315 Rocket 4.0 20:52:57 10° S 20:59:12 79° E 21:05:32 10° N
CENTAUR R/B 3.5 20:52:17 10° NNW 20:59:57 56° NE 21:08:10 10° SE
USA 186 2.6 20:57:50 10° S 21:01:00 52° W 21:04:08 10° NNW
Cosmos 1812 3.4 20:57:20 10° SSW 21:01:10 59° W 21:05:00 10° N
NOSS 3-4 (A) 4.1 20:55:18 10° SW 21:01:33 65° NW 21:08:03 10° NNE
NOSS 3-4 (C) 4.1 20:55:24 10° SW 21:01:39 66° NW 21:08:10 10° NNE
SJ-11-01 4.4 20:58:02 10° SSE 21:02:39 66° ENE 21:07:20 10° N
Cosmos 1743 3.6 21:02:45 10° N 21:06:19 34° ENE 21:09:53 10° SE
NOSS 2-2 (C) 3.9 21:06:04 10° S 21:09:46 38° ESE 21:13:53 10° NE
Aureole 1 Rocket 4.0 21:11:05 10° SE 21:13:16 16° ESE 21:15:17 10° ENE
Cosmos 1536 Rocket 3.5 21:11:18 10° S 21:15:34 63° E 21:19:52 10° NNE
ASTRO E2 4.4 21:14:21 10° SW 21:17:03 18° S 21:19:15 12° SE
Cosmos 1680 Rocket 4.1 21:13:43 10° SSE 21:18:25 35° E 21:23:08 10° NE
SL-27 R/B 4.2 21:17:16 12° SE 21:19:13 17° E 21:21:40 10° NE
Helios 1A 3.6 21:21:37 10° S 21:25:45 56° W 21:29:56 10° NNW
Cosmos 405 4.5 21:25:44 10° NNE 21:28:36 22° ENE 21:30:28 15° ESE
PSLV R/B 3.0 21:26:22 10° W 21:29:28 72° S 21:32:18 12° E
Resurs 01 Rocket 4.1 21:27:55 10° SW 21:31:15 21° W 21:34:35 10° NW
Meteor 2-4 Rocket 4.1 21:26:02 10° SSE 21:31:17 45° E 21:36:45 10° NNE
Cosmos 1544 Rocket 4.5 21:28:33 10° NNW 21:32:44 48° W 21:36:52 10° SSW
Envisat 3.7 21:28:25 10° S 21:33:21 53° W 21:38:20 10° NNW
Cosmos 292 Rocket 4.4 21:29:22 10° SSW 21:34:09 62° WNW 21:38:56 10° NNE
SPOT 5 3.4 21:34:31 16° SE 21:37:25 35° ENE 21:41:22 10° N
Cosmos 1666 2.8 21:35:55 10° N 21:39:38 56° E 21:42:12 18° SSE
Nadezhda 1 Rocket 4.1 21:37:04 10° S 21:43:15 59° E 21:49:32 10° NNE
SL-08 RB Rocket 4.5 21:42:46 18° SE 21:45:29 35° ENE 21:49:34 10° N
Meteor 1-19 Rocket 4.3 21:42:38 10° S 21:48:28 88° ESE 21:54:16 10° N
Cosmos 1025 Rocket 3.5 21:45:55 19° SSE 21:48:33 39° E 21:52:32 10° NNE
ASTEX 1 3.3 21:43:57 12° S 21:48:34 81° E 21:53:29 10° N
Cosmos 2154 Rocket 4.4 21:42:36 10° N 21:48:43 47° ENE 21:53:07 19° SE
MOS 1-B Rocket 4.0 21:49:25 16° SSE 21:53:58 73° ENE 22:00:14 10° N
Aureole 3 Rocket 3.9 21:48:53 10° S 21:55:56 84° W 22:00:54 10° N
Terra 3.5 21:53:59 15° E 21:56:14 20° ENE 21:59:40 10° NNE
Meteor 1-23 Rocket 4.3 21:52:54 13° S 21:57:46 58° E 22:03:16 10° NNE
NOSS 2-2 (E) 4.0 21:54:33 10° SW 21:58:33 63° NW 22:03:16 10° NNE
CRYOSAT 2 4.3 21:54:49 14° S 21:59:01 89° W 22:03:54 10° N
Meteor 1-15 Rocket 4.4 21:57:23 10° N 22:02:54 55° ENE 22:06:11 24° SE
Cosmos 923 Rocket 4.3 21:58:07 10° SSW 22:03:25 71° WNW 22:08:45 10° NNE
Cosmos 405 Rocket 3.5 22:00:34 10° SSW 22:04:11 50° WNW 22:07:54 10° N
Cosmos 1346 3.9 22:03:17 12° SSW 22:05:41 44° WNW 22:08:23 10° N
Cosmos 1656 Rocket 4.0 22:00:50 10° NNW 22:06:11 59° WSW 22:10:13 18° S
Cosmos 1238 Rocket 4.1 22:00:39 10° S 22:07:20 82° E 22:14:00 10° N
GENESIS II 4.3 22:03:59 10° NNW 22:07:56 66° NE 22:09:34 32° SE
YAOGAN 6 4.2 22:05:26 10° SSW 22:08:32 29° W 22:11:39 10° NNW
H-2A R/B 3.6 22:08:01 20° E 22:09:44 25° ENE 22:13:25 10° NNE
Tiangong 2 2.6 22:07:01 10° SW 22:08:38 23° SSW 22:08:38 23° SSW
MetOp-A 4.2 22:06:10 18° S 22:10:16 76° WSW 22:15:39 10° NNW
COSMOS 2455 4.2 22:07:41 10° NW 22:12:54 32° WSW 22:18:01 10° SSW
Cosmos 2341 Rocket 4.3 22:09:02 10° N 22:15:15 55° ENE 22:18:46 26° SE
Cosmos 1441 Rocket 3.4 22:15:21 16° SSW 22:18:12 67° W 22:21:56 10° N
Cosmos 1943 Rocket 4.3 22:15:51 10° NW 22:19:47 20° W 22:23:40 10° SW
Meteor 2-19 Rocket 4.5 22:17:49 10° N 22:23:55 66° E 22:27:11 29° SSE
OAO 2 Rocket 3.8 22:20:04 10° WSW 22:24:36 36° S 22:25:27 34° SSE
ERS-1 Rocket 4.1 22:21:30 13° SSW 22:25:41 39° W 22:30:23 10° NNW
H-2A R/B 1.9 22:24:04 32° SSE 22:26:21 72° ENE 22:31:21 10° N
COSMOS 2406 3.9 22:22:54 10° SW 22:28:32 56° WNW 22:34:09 10° NNE
Okean 1-7 Rocket 4.0 22:25:22 16° SSW 22:28:52 63° W 22:33:20 10° N
USA 267 3.8 22:24:57 10° ENE 22:30:43 32° SE 22:32:18 29° SSE
DMSP B5D2-2 4.3 22:26:51 10° NNE 22:32:02 51° E 22:33:57 34° SSE
ARGOS 3.5 22:32:24 23° S 22:35:42 61° WSW 22:41:06 10° NNW
Cosmos 2278 4.2 22:34:09 10° NNW 22:39:41 49° ENE 22:41:57 32° ESE
DNEPR-1 R/B 4.3 22:38:23 10° NW 22:42:27 44° WSW 22:43:52 33° SSW
Cosmos 2082 Rocket 3.0 22:43:04 31° ESE 22:43:29 32° ESE 22:48:25 10° NE
Cosmos 1624 Rocket 3.9 22:39:00 10° NNW 22:44:19 87° ENE 22:46:15 41° SSE
SL-24 DEB 4.4 22:44:02 34° SSW 22:45:58 70° W 22:50:36 10° N
Cosmos 1892 Rocket 3.5 22:44:34 43° S 22:46:00 84° E 22:50:26 10° N
Cosmos 2181 Rocket 4.0 22:46:01 28° S 22:49:37 83° E 22:55:58 10° N
IGS 5A 3.6 22:49:33 52° ESE 22:50:10 58° ENE 22:54:16 10° N
CENTAUR R/B 4.0 22:43:17 10° NW 22:50:39 41° WSW 22:55:42 21° S
Okean 2 4.1 22:48:38 25° SW 22:50:41 50° W 22:54:41 10° N
deb Chang Zheng 4 3.7 22:46:57 10° NNE 22:51:09 49° E 22:51:21 49° ESE
Cosmos 2228 2.9 22:48:52 10° N 22:53:11 67° E 22:53:47 58° SE
SL-27 R/B 4.4 22:50:58 10° SW 22:54:12 29° WNW 22:57:28 10° N
Cosmos 1437 Rocket 3.4 22:53:01 10° NNW 22:56:42 46° W 22:57:30 39° SW
Cosmos 2369 3.8 22:52:13 10° NNW 22:57:57 67° ENE 22:59:47 43° SE
Cosmos 921 Rocket 3.0 22:55:34 10° NNW 23:00:05 81° ENE 23:00:46 63° SE
Cosmos 1606 Rocket 4.2 22:56:14 10° NNW 23:00:25 49° W 23:01:41 36° SW
Cosmos 2056 Rocket 3.5 22:57:41 10° NNW 23:02:51 69° WSW 23:04:18 46° S
Cosmos 1697 Rocket 3.4 23:05:14 10° NNW 23:10:35 43° ENE 23:12:12 35° E
Cosmos 1726 Rocket 4.3 23:07:38 10° NNW 23:11:46 44° W 23:12:47 37° SW
Cosmos 1809 Rocket 4.4 23:06:37 10° N 23:12:42 73° E 23:14:28 47° SSE
Cosmos 2058 Rocket 3.4 23:11:23 10° NNW 23:15:42 56° W 23:16:28 49° SW
SL-19 R/B 4.1 23:12:15 10° NNE 23:17:41 87° WNW 23:19:21 46° SSW
Cosmos 1271 Rocket 4.3 23:14:53 10° NNE 23:17:42 26° ENE 23:17:42 26° ENE
COSMOS 2487 3.0 23:19:36 56° N 23:19:36 56° N 23:22:29 10° NNE
CZ-4B R/B 3.4 23:14:15 10° NNE 23:19:16 66° ESE 23:19:54 60° SE
CARTOSAT-1 3.8 23:19:44 55° SW 23:20:13 59° W 23:24:30 10° NNW
Cosmos 839 Rocket 4.4 23:16:14 10° NW 23:22:47 73° WSW 23:25:33 42° S
Cosmos 864 Rocket 4.4 23:18:55 10° N 23:25:16 83° E 23:27:01 51° SSE
Cosmos 1420 Rocket 4.4 23:20:08 10° N 23:25:17 51° ENE 23:26:07 46° E
Meteor 1-21 4.4 23:27:18 49° ESE 23:27:54 52° E 23:33:26 10° NNE
Cosmos 1833 Rocket 2.6 23:28:30 60° SSE 23:29:23 71° ESE 23:35:00 10° NNE
Cosmos 1066 Rocket 4.2 23:28:37 46° SSW 23:30:15 74° W 23:35:52 10° N
Terra 2.4 23:32:52 42° SW 23:33:38 46° W 23:38:14 10° NNW
Cosmos 1766 3.8 23:30:29 10° N 23:33:44 53° NNE 23:33:44 53° NNE
Cosmos 1452 Rocket 3.3 23:29:57 10° NNW 23:35:15 87° WSW 23:35:54 69° S
Cosmos 1656 3.5 23:29:57 10° NNW 23:35:25 86° WSW 23:36:13 66° SSE
Meteor 2-16 Rocket 4.4 23:29:42 10° N 23:35:50 71° E 23:37:08 55° SE
Spot 4 3.7 23:37:32 74° SSW 23:37:53 81° WSW 23:42:42 10° NNW
SL-8 Rocket 4.5 23:34:23 10° NNW 23:40:26 53° W 23:42:36 37° SW
Cosmos 2366 rocket 4.1 23:37:51 10° NNW 23:43:59 68° W 23:45:36 49° SSW
H-2A R/B 3.3 23:45:08 33° WSW 23:45:34 33° W 23:49:41 10° NNW
Cosmos 1812 Rocket 3.6 23:41:39 10° N 23:45:57 81° N 23:45:57 81° N
ISS -1.5 23:52:40 22° NNE 23:52:40 22° NNE 23:54:15 10° NE
Meteor 1-4 Rocket 4.2 23:53:10 10° NNW 23:55:39 29° WNW 23:55:39 29° WNW
